Regional Weather Roundup
Issued by NWS

Home | Current Version | Previous Version | Text Only | Print | Product List | Glossary On
Versions: 1 2 3 4 5 6 7 8 9 10 11 12 13 14 15 16 17 18 19 20 21 22 23 24 25 26 27 28 29 30 31 32 33 34 35 36 37 38 39 40 41 42 43 44 45 46 47 48 49 50
114
ASUS43 KLSX 201907
RWRMO

WEATHER SUMMARY FOR MISSOURI
NATIONAL WEATHER SERVICE SPRINGFIELD MO
100 PM CST SAT JAN 20 2018

NOTE: "FAIR" INDICATES FEW OR NO CLOUDS BELOW 12,000 FEET WITH NO
       SIGNIFICANT WEATHER AND/OR OBSTRUCTIONS TO VISIBILITY.
       CURRENT SKY AND/OR WEATHER CONDITIONS ARE NOT AVAILABLE FOR
       CHILLICOTHE AND FARMINGTON.

MOZ001>031-035>038-043-044-053-054-202000-
...NORTHERN AND WESTERN MISSOURI...

CITY           SKY/WX    TMP DP  RH WIND       PRES   REMARKS
KANSAS CTY INT CLOUDY    51  43  74 SW13      29.86F
KANSAS C DTWN  CLOUDY    52  43  71 S6        29.86F
LEE`S SUMMIT   CLOUDY    51  45  79 SW8       29.88F
ST JOSEPH      CLOUDY    52  45  77 S9        29.86F
CHILLICOTHE      N/A     54  44  69 S9        29.89F
KIRKSVILLE     PTSUNNY   52  45  77 SW10      29.90F

$$
MOZ066>068-077>081-088>096-101>105-202000-
...SOUTHWEST MISSOURI...

CITY           SKY/WX    TMP DP  RH WIND       PRES   REMARKS
SPRINGFIELD    MOSUNNY   62  48  60 S14       29.90F
JOPLIN         MOSUNNY   61  48  62 S17       29.87F
BRANSON        MOSUNNY   61  45  55 S10G18    29.95F

$$
MOZ032>034-039>042-045>050-055>058-069>072-202000-
...CENTRAL MISSOURI...

CITY           SKY/WX    TMP DP  RH WIND       PRES   REMARKS
COLUMBIA       CLOUDY    50  42  74 SE6       29.93F
JEFFERSON CITY CLOUDY    54  44  69 SE5       29.93F
ROLLA          CLOUDY    55  43  63 S14G26    29.95F
SEDALIA        CLOUDY    55  47  74 SW12      29.91F
WHITEMAN AFB   CLOUDY    52  46  78 SW13      29.85F
WARRENSBURG    CLOUDY    52  45  76 S10       29.89F
OSAGE BEACH    CLOUDY    59  46  62 S15       29.92F

$$
MOZ051-052-059>065-202000-
...EAST CENTRAL MISSOURI...

CITY           SKY/WX    TMP DP  RH WIND       PRES   REMARKS
ST LOUIS INTL  CLOUDY    55  43  63 SW3       29.98F
SPIRIT OF STL  CLOUDY    57  45  64 SW9G18    29.96F
ST CHARLES     CLOUDY    53  43  68 SW7       29.97F

$$
MOZ072>076-082>087-097>100-106>115-202000-
...SOUTH CENTRAL AND SOUTHEAST MISSOURI...

CITY           SKY/WX    TMP DP  RH WIND       PRES   REMARKS
CAPE GIRARDEAU CLOUDY    44  30  57 S10       30.07F
FARMINGTON     FAIR      57  42  57 S12       29.99F
POPLAR BLUFF   CLOUDY    47  37  68 S9        30.07F
WEST PLAINS    CLOUDY    56  44  64 S10       29.99F

$$



USA.gov is the U.S. government's official web portal to all federal, state and local government web resources and services.